Regional Weather Roundup
Issued by NWS

Home | Current Version | Previous Version | Graphics & Text | Print | Product List | Glossary On
Versions: 1 2 3 4 5 6 7 8 9 10 11 12 13 14 15 16 17 18 19 20 21 22 23 24 25 26 27 28 29 30 31 32 33 34 35 36 37 38 39 40 41 42 43 44 45 46 47 48 49 50
954
ASUS45 KBOI 201610
RWRID

IDAHO REGIONAL WEATHER ROUNDUP
NATIONAL WEATHER SERVICE BOISE ID
1000 AM MDT SUN AUG 20 2017

NOTE: "FAIR" INDICATES FEW OR NO CLOUDS BELOW 12000 FEET
WITH NO SIGNIFICANT WEATHER AND/OR OBSTRUCTIONS TO VISIBILITY

IDZ012-014-201700-
SOUTHWEST IDAHO


CITY           SKY/WX    TMP DP  RH WIND       PRES   REMARKS
BOISE          SUNNY     65  43  44 VRB3      30.07F
CALDWELL       SUNNY     68  43  40 W9        30.08S
MOUNTAIN HOME  SUNNY     71  41  33 W12       30.07R
$$

IDZ016-017-201700-
SOUTHCENTRAL IDAHO


CITY           SKY/WX    TMP DP  RH WIND       PRES   REMARKS
BURLEY         SUNNY     67  41  38 W8        30.11R
JEROME         SUNNY     64  42  44 SW10      30.12R
TWIN FALLS     SUNNY     70  38  31 W10       30.12S
$$

IDZ019>023-201700-
SOUTHEAST IDAHO


CITY           SKY/WX    TMP DP  RH WIND       PRES   REMARKS
IDAHO FALLS    SUNNY     64  39  39 S10       30.13S
POCATELLO      SUNNY     68  35  29 SW13      30.14R
REXBURG        SUNNY     62  41  46 S6        30.13S
$$

IDZ006-010-011-018-031-032-201700-
CENTRAL IDAHO MOUNTAINS


CITY           SKY/WX    TMP DP  RH WIND       PRES   REMARKS
MCCALL         SUNNY     62  39  42 CALM      30.15S
STANLEY          N/A     52  30  43 CALM      30.25F
SALMON         SUNNY     60  39  45 CALM      30.16F
CHALLIS        SUNNY     60  35  39 CALM      30.18S
$$

IDZ002-004-006-007-026-201700-
NORTHERN IDAHO


CITY           SKY/WX    TMP DP  RH WIND       PRES   REMARKS
LEWISTON       MOSUNNY   66  44  45 VRB5      30.10R
LOWELL           N/A     59  44  57 CALM      30.15F
COEUR D`ALENE  PTSUNNY   64  44  48 S7        30.10S
MULLAN PASS    MOSUNNY   55  34  45 CALM      30.21R
$$




USA.gov is the U.S. government's official web portal to all federal, state and local government web resources and services.